[[{"header":{"parameterUnit":"m.s-1","parameterCategory":1,"la1":30.2991,"la2":30.254,"lo1":-89.0895,"lo2":-89.0444,"dy":0.0017,"dx":0.0017,"nx":28,"ny":28,"refTime":"2024-12-17T09:00:00:Z","depth":0,"parameterNumber":2,"parameterNumberName":"U-component_of_WINDS"},"data":[0,0,0,0,0,0,0,0,0,0,0,0,0,0,0,0,0,0,0,0,0,0,0,0,0,0,0,0,0,0,0,0,0,0,0,0,0,0,0,0,0,0,0,0,0,0,0,0,0,0,0,0,0,0,0,0,0,0,-0.0531,-0.0529,0,-0.042,-0.0418,-0.0417,-0.0316,-0.0315,-0.0314,-0.0313,-0.0202,-0.02,-0.0198,0,0,0,0,0,0,0,0,0,0,0,0,0,-0.0659,-0.0657,-0.0531,-0.0529,-0.0528,-0.042,-0.0418,-0.0417,-0.0317,-0.0315,-0.0314,-0.0312,-0.0202,-0.02,-0.0198,0,0,0,0,0,0,0,0,0,0,0,0,0,-0.0581,-0.0657,-0.0531,-0.0465,-0.0458,-0.042,-0.0418,-0.0416,-0.0317,-0.0315,-0.0313,-0.0311,-0.0203,-0.02,-0.0198,-0.0218,0,0,-0.0189,-0.0188,0,0,0,0,0,0,0,0,-0.0586,-0.0577,-0.0476,-0.0469,-0.0461,-0.038,-0.0423,-0.035,-0.0317,-0.037,-0.0313,-0.0311,-0.0263,-0.0255,-0.0238,-0.0212,-0.0208,-0.0189,-0.0188,-0.0186,-0.0186,0,0,0,0,0,0,0,-0.0591,-0.0581,-0.0487,-0.0475,-0.0466,-0.0442,-0.0429,-0.0409,-0.0328,-0.0366,-0.0358,-0.0346,-0.0258,-0.0241,-0.0235,-0.0206,-0.0189,-0.0187,-0.0185,-0.0184,-0.0194,-0.0196,0,0,0,0,0,0,-0.0607,-0.0586,-0.049,-0.0483,-0.052,-0.0441,-0.0426,-0.0408,-0.0328,-0.0314,-0.0348,-0.0342,-0.0247,-0.0238,-0.0231,-0.0251,-0.0186,-0.0184,-0.0182,-0.0192,-0.0194,-0.0196,0,0,0,0,0,0,-0.061,-0.0599,-0.0495,-0.0533,-0.0518,-0.0441,-0.0421,-0.0407,-0.0389,-0.0315,-0.03,-0.0345,-0.0245,-0.0235,-0.0222,-0.0245,-0.0183,-0.018,-0.019,-0.0193,-0.0195,-0.029,0,0,0,0,0,0,-0.0614,-0.0601,-0.0606,-0.0534,-0.0516,-0.0487,-0.0422,-0.0406,-0.0385,-0.0376,-0.0308,-0.0295,-0.0243,-0.0227,-0.0219,-0.0241,-0.0178,-0.0187,-0.0191,-0.0194,-0.0285,-0.0296,-0.0305,0,0,0,0,0,-0.0619,-0.0637,-0.0607,-0.0596,-0.0521,-0.0489,-0.0479,-0.0417,-0.0387,-0.0393,-0.0345,-0.0297,-0.0244,-0.0226,-0.0217,-0.0238,-0.0186,-0.019,-0.0194,-0.028,-0.0294,-0.0305,0,0,0,0,0,0,-0.0715,-0.0627,-0.0592,-0.0588,-0.0547,-0.0472,-0.0477,-0.0433,-0.0401,-0.0394,-0.032,-0.0306,-0.0302,-0.0268,-0.025,-0.0254,-0.0208,-0.0211,-0.0277,-0.0289,-0.0299,-0.0308,-0.0176,0,0,0,0,0,-0.0736,-0.0716,-0.064,-0.0643,-0.0624,-0.0555,-0.0538,-0.0495,-0.0449,-0.0432,-0.0383,-0.0342,-0.0316,-0.03,-0.0272,-0.0279,-0.0264,-0.0289,-0.0299,-0.0308,-0.0312,-0.0316,-0.0327,-0.021,-0.021,-0.021,0,0,-0.0779,-0.0728,-0.072,-0.0661,-0.0624,-0.0607,-0.0541,-0.0524,-0.0511,-0.0429,-0.0415,-0.0378,-0.0327,-0.0326,-0.0322,-0.0297,-0.0341,-0.0313,-0.0321,-0.032,-0.0321,-0.0332,-0.0342,-0.0213,-0.0213,-0.0212,0,0,-0.0848,-0.0807,-0.0806,-0.0771,-0.0715,-0.0669,-0.067,-0.0602,-0.0574,-0.0558,-0.0497,-0.0481,-0.0437,-0.0404,-0.0382,-0.0441,-0.0397,-0.0434,-0.0489,-0.0494,-0.0503,-0.0511,-0.0534,-0.0543,-0.0437,-0.0438,-0.0438,0,-0.0909,-0.0879,-0.0812,-0.0799,-0.0777,-0.0702,-0.0702,-0.0671,-0.061,-0.0597,-0.0569,-0.0514,-0.0474,-0.0465,-0.048,-0.0463,-0.0463,-0.0442,-0.0507,-0.0514,-0.052,-0.0542,-0.0551,-0.0443,-0.0442,-0.0442,-0.0441,0,-0.0957,-0.0937,-0.0944,-0.0887,-0.0865,-0.0859,-0.0793,-0.0778,-0.0737,-0.0695,-0.0681,-0.0631,-0.0593,-0.0587,-0.0546,-0.0572,-0.0559,-0.052,-0.0473,-0.0538,-0.0557,-0.0564,-0.045,-0.0448,-0.0447,-0.0445,0,0,-0.1084,-0.0991,-0.0995,-0.0969,-0.0904,-0.0888,-0.0879,-0.0841,-0.0832,-0.0793,-0.0785,-0.0751,-0.0715,-0.069,-0.0645,-0.0649,-0.0703,-0.061,-0.0608,-0.0631,-0.0732,-0.0763,-0.0773,-0.0672,-0.0673,-0.0674,-0.0737,0,-0.1144,-0.1124,-0.1065,-0.1063,-0.1046,-0.0975,-0.0968,-0.0928,-0.0889,-0.0869,-0.0825,-0.0803,-0.0756,-0.0741,-0.0741,-0.0696,-0.0722,-0.069,-0.0667,-0.0667,-0.0684,-0.0783,-0.0815,-0.0877,-0.0744,-0.0745,-0.0746,0,-0.1211,-0.1177,-0.1175,-0.1112,-0.1102,-0.1097,-0.1059,-0.104,-0.0994,-0.0965,-0.0938,-0.0889,-0.0878,-0.0833,-0.0819,-0.0799,-0.0785,-0.0762,-0.0763,-0.076,-0.0712,-0.0785,-0.0894,-0.0905,-0.0756,-0.0755,-0.0755,0,-0.1308,-0.1261,-0.1254,-0.1234,-0.1159,-0.1158,-0.1127,-0.1079,-0.1061,-0.1028,-0.1016,-0.0982,-0.0964,-0.094,-0.0883,-0.0855,-0.0877,-0.0826,-0.0854,-0.0856,-0.0863,-0.0864,-0.0974,-0.0851,-0.0851,-0.0851,-0.0851,0,-0.1382,-0.1384,-0.1296,-0.1292,-0.1293,-0.1225,-0.1228,-0.119,-0.1149,-0.1138,-0.1074,-0.1065,-0.099,-0.0973,-0.0928,-0.0925,-0.0917,-0.0894,-0.0883,-0.0901,-0.0905,-0.0893,-0.0888,-0.0853,-0.0853,-0.0852,-0.0852,0,-0.149,-0.1431,-0.1419,-0.135,-0.1333,-0.1337,-0.1279,-0.1273,-0.123,-0.1217,-0.121,-0.1143,-0.112,-0.106,-0.1021,-0.0992,-0.1001,-0.0979,-0.1017,-0.101,-0.1043,-0.1041,-0.1151,-0.1163,-0.1031,-0.1033,-0.1034,0,-0.1543,-0.1542,-0.1474,-0.1462,-0.1434,-0.1415,-0.1396,-0.133,-0.1313,-0.1262,-0.1264,-0.1235,-0.1209,-0.1176,-0.1125,-0.1095,-0.1073,-0.1113,-0.1068,-0.1087,-0.1076,-0.1078,-0.1079,-0.1124,-0.1126,-0.1127,-0.1128,0,-0.1643,-0.1614,-0.1589,-0.1555,-0.1535,-0.1505,-0.1471,-0.1465,-0.1391,-0.1376,-0.1351,-0.1331,-0.1292,-0.1266,-0.1229,-0.1199,-0.1153,-0.1143,-0.1148,-0.1168,-0.1192,-0.1182,-0.1047,-0.1141,-0.114,-0.1139,-0.1138,-0.1138,-0.1726,-0.1724,-0.1676,-0.1651,-0.1619,-0.159,-0.1582,-0.1538,-0.1516,-0.1479,-0.1441,-0.1422,-0.1378,-0.1324,-0.1297,-0.1281,-0.1257,-0.1264,-0.1266,-0.127,-0.1279,-0.1192,-0.1274,-0.1274,-0.1273,-0.1273,-0.1273,0,-0.1825,-0.1791,-0.1769,-0.1725,-0.1706,-0.1663,-0.1624,-0.1612,-0.1595,-0.1557,-0.1533,-0.1507,-0.1482,-0.1429,-0.1399,-0.1397,-0.1376,-0.1392,-0.1393,-0.1387,-0.1301,-0.1301,-0.141,-0.141,-0.141,-0.141,-0.141,-0.141,-0.1875,-0.1869,-0.1835,-0.1814,-0.178,-0.176,-0.1742,-0.1716,-0.1686,-0.1659,-0.1637,-0.1603,-0.156,-0.1527,-0.1503,-0.1488,-0.1481,-0.1505,-0.1484,-0.1406,-0.1393,-0.138,-0.1379,-0.1503,-0.1504,-0.1571,-0.1571,-0.1572]},{"header":{"parameterUnit":"m.s-1","parameterCategory":1,"la1":30.2991,"la2":30.254,"lo1":-89.0895,"lo2":-89.0444,"dy":0.0017,"dx":0.0017,"nx":28,"ny":28,"refTime":"2024-12-17T09:00:00:Z","depth":0,"parameterNumber":3,"parameterNumberName":"V-component_of_WINDS"},"data":[0,0,0,0,0,0,0,0,0,0,0,0,0,0,0,0,0,0,0,0,0,0,0,0,0,0,0,0,0,0,0,0,0,0,0,0,0,0,0,0,0,0,0,0,0,0,0,0,0,0,0,0,0,0,0,0,0,0,-0.6035,-0.6035,0,-0.5999,-0.5998,-0.5998,-0.5954,-0.5953,-0.5952,-0.5952,-0.5913,-0.5913,-0.5912,0,0,0,0,0,0,0,0,0,0,0,0,0,-0.6066,-0.6066,-0.6036,-0.6035,-0.6035,-0.5999,-0.5998,-0.5998,-0.5954,-0.5953,-0.5952,-0.5951,-0.5913,-0.5913,-0.5912,0,0,0,0,0,0,0,0,0,0,0,0,0,-0.6044,-0.6066,-0.6036,-0.6008,-0.6005,-0.5999,-0.5998,-0.5998,-0.5954,-0.5953,-0.5952,-0.5951,-0.5913,-0.5913,-0.5912,-0.593,0,0,-0.5911,-0.591,0,0,0,0,0,0,0,0,-0.6045,-0.6043,-0.6013,-0.601,-0.6007,-0.598,-0.5995,-0.5975,-0.5954,-0.5973,-0.5952,-0.595,-0.5936,-0.5934,-0.5929,-0.5928,-0.5926,-0.5911,-0.591,-0.591,-0.591,0,0,0,0,0,0,0,-0.6047,-0.6044,-0.6021,-0.6012,-0.6009,-0.5998,-0.5993,-0.5991,-0.5961,-0.5972,-0.5968,-0.5965,-0.5934,-0.593,-0.5928,-0.5926,-0.5911,-0.591,-0.591,-0.5909,-0.5937,-0.5938,0,0,0,0,0,0,-0.6052,-0.6046,-0.6022,-0.602,-0.6024,-0.5998,-0.5993,-0.599,-0.5961,-0.5956,-0.5966,-0.5963,-0.5931,-0.5928,-0.5926,-0.5945,-0.591,-0.5909,-0.5909,-0.5936,-0.5937,-0.5938,0,0,0,0,0,0,-0.6053,-0.6051,-0.6024,-0.6032,-0.6027,-0.5998,-0.5995,-0.5989,-0.5985,-0.5956,-0.5951,-0.5966,-0.593,-0.5927,-0.5929,-0.5943,-0.5909,-0.5909,-0.5934,-0.5936,-0.5938,-0.5982,0,0,0,0,0,0,-0.6054,-0.6051,-0.6058,-0.6032,-0.6027,-0.6028,-0.5996,-0.5989,-0.5984,-0.598,-0.5956,-0.5951,-0.5929,-0.593,-0.5929,-0.5941,-0.5908,-0.5933,-0.5935,-0.5937,-0.5979,-0.5985,-0.599,0,0,0,0,0,-0.6056,-0.6072,-0.6058,-0.6056,-0.6035,-0.6028,-0.6025,-0.6001,-0.5985,-0.5991,-0.5973,-0.5951,-0.5942,-0.5931,-0.5929,-0.5942,-0.5932,-0.5935,-0.5937,-0.5977,-0.5984,-0.599,0,0,0,0,0,0,-0.6099,-0.6068,-0.6053,-0.6061,-0.6048,-0.6021,-0.6028,-0.6009,-0.6,-0.5996,-0.5966,-0.596,-0.5966,-0.5954,-0.5943,-0.5957,-0.5934,-0.5936,-0.5965,-0.5971,-0.5976,-0.5979,-0.5908,0,0,0,0,0,-0.611,-0.6108,-0.608,-0.609,-0.6084,-0.6057,-0.6054,-0.6036,-0.6021,-0.6015,-0.5997,-0.5983,-0.5976,-0.5973,-0.5966,-0.5977,-0.5971,-0.5985,-0.599,-0.5995,-0.5997,-0.6002,-0.6008,-0.5946,-0.5946,-0.5946,0,0,-0.6132,-0.6114,-0.6115,-0.6098,-0.6086,-0.6084,-0.6053,-0.6052,-0.6051,-0.6015,-0.6016,-0.6002,-0.5984,-0.5991,-0.5993,-0.5981,-0.6013,-0.5998,-0.6001,-0.6001,-0.6005,-0.6011,-0.6017,-0.5948,-0.5947,-0.5947,0,0,-0.6171,-0.6157,-0.6164,-0.6152,-0.6134,-0.6116,-0.6118,-0.6094,-0.6084,-0.6084,-0.6057,-0.6055,-0.6045,-0.6033,-0.6026,-0.6061,-0.6041,-0.6059,-0.6087,-0.6093,-0.6098,-0.6102,-0.6115,-0.612,-0.6062,-0.6062,-0.6062,0,-0.62,-0.6197,-0.617,-0.6171,-0.6165,-0.6132,-0.6139,-0.6129,-0.6109,-0.6106,-0.6092,-0.6079,-0.6064,-0.6069,-0.6077,-0.6072,-0.6073,-0.6062,-0.6099,-0.6103,-0.6107,-0.6119,-0.6124,-0.6064,-0.6064,-0.6064,-0.6063,0,-0.6234,-0.6232,-0.6239,-0.6222,-0.6216,-0.622,-0.6194,-0.6191,-0.6174,-0.6158,-0.6159,-0.6141,-0.6129,-0.6129,-0.6111,-0.613,-0.6123,-0.6105,-0.6081,-0.6116,-0.6126,-0.6131,-0.6068,-0.6067,-0.6066,-0.6065,0,0,-0.6299,-0.6267,-0.627,-0.6262,-0.624,-0.6237,-0.624,-0.6229,-0.6228,-0.6215,-0.6216,-0.6209,-0.6192,-0.6184,-0.6165,-0.617,-0.6199,-0.6151,-0.615,-0.6161,-0.6219,-0.6234,-0.6239,-0.6185,-0.6186,-0.6187,-0.6221,0,-0.6335,-0.6337,-0.6314,-0.6323,-0.6321,-0.629,-0.6292,-0.6278,-0.6263,-0.6259,-0.6241,-0.6237,-0.6214,-0.6209,-0.6213,-0.6195,-0.621,-0.6192,-0.6186,-0.6186,-0.6192,-0.6245,-0.626,-0.6293,-0.6225,-0.6225,-0.6226,0,-0.6376,-0.6366,-0.6376,-0.6353,-0.6351,-0.6354,-0.6342,-0.6338,-0.6322,-0.6311,-0.6302,-0.628,-0.6281,-0.6258,-0.6259,-0.6247,-0.6243,-0.6234,-0.6234,-0.6233,-0.6209,-0.6246,-0.6303,-0.6308,-0.6232,-0.6232,-0.6231,0,-0.6424,-0.6413,-0.6417,-0.6411,-0.6384,-0.6387,-0.6376,-0.6359,-0.6354,-0.6343,-0.634,-0.633,-0.6324,-0.6316,-0.6293,-0.6278,-0.6296,-0.6271,-0.6287,-0.6287,-0.6292,-0.6292,-0.6351,-0.6289,-0.6289,-0.6289,-0.6289,0,-0.6466,-0.6473,-0.6438,-0.6441,-0.6448,-0.642,-0.6427,-0.6413,-0.6398,-0.6398,-0.637,-0.637,-0.6338,-0.6334,-0.6316,-0.6319,-0.6317,-0.6307,-0.6303,-0.631,-0.6312,-0.6308,-0.6305,-0.629,-0.629,-0.629,-0.629,0,-0.6521,-0.6497,-0.65,-0.6475,-0.6469,-0.6475,-0.6453,-0.6455,-0.6438,-0.6437,-0.6435,-0.6408,-0.6403,-0.6378,-0.6366,-0.6353,-0.6363,-0.6353,-0.6369,-0.6366,-0.6383,-0.6382,-0.6441,-0.6448,-0.6382,-0.6383,-0.6383,0,-0.6549,-0.6554,-0.6529,-0.6527,-0.6518,-0.6514,-0.6509,-0.6482,-0.6478,-0.646,-0.6463,-0.6455,-0.6448,-0.644,-0.6419,-0.641,-0.64,-0.6421,-0.6398,-0.6406,-0.6401,-0.6401,-0.6401,-0.6426,-0.6427,-0.6428,-0.6428,0,-0.6603,-0.6591,-0.6585,-0.6575,-0.657,-0.6561,-0.655,-0.655,-0.6519,-0.6516,-0.651,-0.6504,-0.6492,-0.6485,-0.6472,-0.646,-0.644,-0.6436,-0.6439,-0.6447,-0.6456,-0.6452,-0.6383,-0.6434,-0.6434,-0.6433,-0.6433,-0.6433,-0.6646,-0.6648,-0.6632,-0.6626,-0.6615,-0.6606,-0.6606,-0.6589,-0.6583,-0.6572,-0.6556,-0.6552,-0.6536,-0.6517,-0.6507,-0.6503,-0.6492,-0.6496,-0.6497,-0.6499,-0.6503,-0.6457,-0.6501,-0.6501,-0.65,-0.65,-0.65,0,-0.6698,-0.6686,-0.6681,-0.6667,-0.6662,-0.6643,-0.663,-0.6628,-0.6625,-0.6611,-0.6604,-0.6598,-0.659,-0.6569,-0.656,-0.6561,-0.6551,-0.6559,-0.6559,-0.6557,-0.6514,-0.6512,-0.6567,-0.6567,-0.6567,-0.6567,-0.6567,-0.6567,-0.6725,-0.6729,-0.6716,-0.6714,-0.6701,-0.6698,-0.6692,-0.6683,-0.6673,-0.6666,-0.666,-0.6647,-0.663,-0.6619,-0.6612,-0.6605,-0.6603,-0.6615,-0.6606,-0.6566,-0.656,-0.6554,-0.6552,-0.6615,-0.6615,-0.6649,-0.665,-0.665]}]]